TimeCST,TemperatureF,Dew PointF,Humidity,Sea Level PressureIn,VisibilityMPH,Wind Direction,Wind SpeedMPH,Gust SpeedMPH,PrecipitationIn,Events,Conditions,WindDirDegrees,DateUTC
12:15 AM,19.2,13.8,80,29.79,10.0,SSW,17.3,24.2,N/A,,Overcast,200,2014-01-16 06:15:00
12:35 AM,19.4,14.0,80,29.76,10.0,South,20.7,25.3,N/A,Snow,Light Snow,190,2014-01-16 06:35:00
12:55 AM,19.8,14.9,81,29.74,10.0,South,21.9,31.1,N/A,Snow,Light Snow,190,2014-01-16 06:55:00
1:15 AM,20.1,14.9,80,29.72,10.0,South,24.2,-,N/A,,Overcast,190,2014-01-16 07:15:00
1:35 AM,20.3,15.3,81,29.72,10.0,South,24.2,28.8,N/A,,Overcast,190,2014-01-16 07:35:00
1:55 AM,20.8,15.4,80,29.71,10.0,South,25.3,29.9,N/A,,Overcast,190,2014-01-16 07:55:00
2:15 AM,21.2,15.8,80,29.70,10.0,South,20.7,27.6,N/A,,Overcast,190,2014-01-16 08:15:00
2:35 AM,21.6,16.2,80,29.69,10.0,South,24.2,28.8,N/A,,Overcast,190,2014-01-16 08:35:00
2:55 AM,21.7,16.2,79,29.67,10.0,South,25.3,32.2,N/A,,Overcast,190,2014-01-16 08:55:00
3:15 AM,21.9,16.5,80,29.67,10.0,SSW,21.9,27.6,N/A,,Overcast,200,2014-01-16 09:15:00
3:35 AM,22.3,16.5,79,29.66,10.0,SSW,21.9,27.6,N/A,,Overcast,200,2014-01-16 09:35:00
3:55 AM,22.6,16.7,78,29.64,10.0,South,23.0,27.6,N/A,,Overcast,190,2014-01-16 09:55:00
4:15 AM,23.0,16.9,77,29.64,10.0,South,20.7,-,N/A,,Overcast,190,2014-01-16 10:15:00
4:35 AM,23.0,17.4,79,29.62,10.0,SSW,19.6,-,N/A,,Overcast,200,2014-01-16 10:35:00
4:55 AM,23.5,18.0,79,29.62,10.0,South,19.6,26.5,N/A,,Overcast,190,2014-01-16 10:55:00
5:15 AM,23.7,18.5,80,29.60,10.0,South,19.6,24.2,N/A,,Overcast,190,2014-01-16 11:15:00
5:35 AM,23.9,19.4,83,29.60,10.0,South,17.3,-,N/A,,Overcast,190,2014-01-16 11:35:00
5:55 AM,24.3,20.5,85,29.59,10.0,South,19.6,-,N/A,,Overcast,190,2014-01-16 11:55:00
6:15 AM,24.4,21.2,87,29.58,10.0,South,17.3,-,N/A,,Overcast,190,2014-01-16 12:15:00
6:35 AM,24.8,21.9,89,29.58,10.0,South,16.1,-,N/A,,Overcast,190,2014-01-16 12:35:00
6:55 AM,24.8,22.6,91,29.58,10.0,SSW,16.1,-,N/A,,Overcast,200,2014-01-16 12:55:00
7:15 AM,25.2,23.0,91,29.57,10.0,SSW,15.0,-,N/A,,Overcast,200,2014-01-16 13:15:00
7:35 AM,25.3,23.0,91,29.56,7.0,SSW,15.0,-,N/A,,Overcast,200,2014-01-16 13:35:00
7:55 AM,25.5,23.4,92,29.57,7.0,South,15.0,-,N/A,,Overcast,190,2014-01-16 13:55:00
8:15 AM,26.1,23.9,92,29.56,7.0,South,18.4,-,N/A,,Overcast,190,2014-01-16 14:15:00
8:35 AM,26.4,24.1,91,29.56,7.0,SSW,16.1,-,N/A,,Overcast,200,2014-01-16 14:35:00
8:55 AM,26.6,24.4,92,29.55,7.0,South,18.4,-,N/A,,Overcast,190,2014-01-16 14:55:00
9:15 AM,27.5,24.8,90,29.55,10.0,SSW,20.7,-,N/A,,Overcast,200,2014-01-16 15:15:00
9:35 AM,28.0,25.2,89,29.55,7.0,SSW,18.4,-,N/A,,Overcast,200,2014-01-16 15:35:00
9:55 AM,28.4,25.7,90,29.54,3.0,SSW,16.1,-,N/A,Snow,Light Snow,200,2014-01-16 15:55:00
10:15 AM,28.9,26.6,91,29.53,3.0,SSW,15.0,-,N/A,Snow,Light Snow,200,2014-01-16 16:15:00
10:35 AM,29.3,26.8,90,29.53,10.0,SSW,17.3,23.0,N/A,,Overcast,210,2014-01-16 16:35:00
10:55 AM,30.2,27.0,88,29.52,10.0,SSW,16.1,-,N/A,,Overcast,210,2014-01-16 16:55:00
11:15 AM,31.1,27.3,86,29.51,7.0,SW,13.8,-,N/A,,Overcast,220,2014-01-16 17:15:00
11:35 AM,31.6,27.9,86,29.50,5.0,SSW,12.7,18.4,N/A,,Overcast,210,2014-01-16 17:35:00
11:55 AM,31.6,28.4,88,29.49,2.5,SW,13.8,19.6,N/A,Snow,Light Snow,220,2014-01-16 17:55:00
12:15 PM,32.0,28.6,87,29.48,10.0,SW,13.8,19.6,N/A,,Overcast,220,2014-01-16 18:15:00
12:35 PM,32.2,28.9,88,29.47,10.0,SSW,12.7,17.3,N/A,,Overcast,210,2014-01-16 18:35:00
12:55 PM,32.2,28.8,87,29.47,7.0,SW,13.8,-,N/A,Rain,Light Rain,220,2014-01-16 18:55:00
1:15 PM,32.9,29.3,87,29.47,10.0,SW,11.5,-,N/A,,Overcast,220,2014-01-16 19:15:00
1:35 PM,32.9,30.0,89,29.47,3.0,SW,11.5,-,N/A,Snow,Light Snow,230,2014-01-16 19:35:00
1:55 PM,32.5,30.7,93,29.46,2.5,WSW,15.0,-,N/A,Snow,Light Snow,240,2014-01-16 19:55:00
2:35 PM,32.5,31.5,96,29.47,2.5,WSW,16.1,24.2,N/A,Snow,Light Snow,250,2014-01-16 20:35:00
2:55 PM,32.9,31.6,95,29.47,2.5,WSW,16.1,25.3,N/A,Snow,Light Snow,250,2014-01-16 20:55:00
3:15 PM,32.5,31.6,96,29.47,2.0,West,17.3,24.2,N/A,Snow,Light Snow,260,2014-01-16 21:15:00
3:35 PM,32.0,29.8,92,29.48,1.8,West,18.4,27.6,N/A,Snow,Light Snow,270,2014-01-16 21:35:00
3:55 PM,31.6,28.8,89,29.50,4.0,West,20.7,28.8,N/A,Snow,Light Snow,280,2014-01-16 21:55:00
4:15 PM,31.1,27.9,88,29.51,7.0,West,24.2,33.4,N/A,Snow,Light Snow,280,2014-01-16 22:15:00
4:35 PM,30.0,22.8,75,29.53,10.0,WNW,21.9,34.5,N/A,,Overcast,290,2014-01-16 22:35:00
4:55 PM,29.7,22.6,75,29.54,10.0,West,24.2,29.9,N/A,,Overcast,270,2014-01-16 22:55:00
5:15 PM,27.9,20.8,75,29.56,10.0,West,25.3,32.2,N/A,,Overcast,280,2014-01-16 23:15:00
5:35 PM,27.0,20.3,76,29.57,10.0,West,23.0,31.1,N/A,,Overcast,280,2014-01-16 23:35:00
5:55 PM,26.4,19.9,77,29.58,10.0,West,23.0,29.9,N/A,,Overcast,280,2014-01-16 23:55:00
6:15 PM,24.8,16.5,71,29.59,10.0,West,19.6,23.0,N/A,,Overcast,280,2014-01-17 00:15:00
6:35 PM,24.4,14.0,65,29.60,10.0,West,24.2,31.1,N/A,,Overcast,280,2014-01-17 00:35:00
6:55 PM,23.7,14.5,68,29.62,10.0,West,17.3,23.0,N/A,,Overcast,280,2014-01-17 00:55:00
7:15 PM,22.5,12.4,65,29.62,10.0,WNW,20.7,29.9,N/A,,Mostly Cloudy,290,2014-01-17 01:15:00
7:35 PM,21.6,11.1,64,29.63,10.0,WNW,24.2,28.8,N/A,,Scattered Clouds,290,2014-01-17 01:35:00
7:55 PM,20.8,11.1,66,29.63,10.0,WNW,20.7,29.9,N/A,,Clear,290,2014-01-17 01:55:00
8:15 PM,19.9,10.8,68,29.64,10.0,West,20.7,25.3,N/A,,Clear,280,2014-01-17 02:15:00
8:35 PM,19.0,10.6,70,29.65,10.0,WNW,18.4,27.6,N/A,,Clear,290,2014-01-17 02:35:00
8:55 PM,18.5,10.4,71,29.66,10.0,WNW,13.8,-,N/A,,Clear,290,2014-01-17 02:55:00
9:15 PM,18.0,10.2,72,29.67,10.0,WNW,16.1,-,N/A,,Clear,300,2014-01-17 03:15:00
9:35 PM,17.2,9.3,71,29.67,10.0,WNW,17.3,-,N/A,,Clear,290,2014-01-17 03:35:00
9:55 PM,16.7,9.1,72,29.68,10.0,WNW,16.1,-,N/A,,Clear,290,2014-01-17 03:55:00
10:15 PM,16.5,9.1,73,29.68,10.0,WNW,18.4,23.0,N/A,,Scattered Clouds,300,2014-01-17 04:15:00
10:35 PM,16.2,9.5,75,29.69,10.0,WNW,18.4,-,N/A,,Mostly Cloudy,290,2014-01-17 04:35:00
10:55 PM,15.6,9.0,75,29.69,10.0,WNW,18.4,-,N/A,,Overcast,290,2014-01-17 04:55:00
11:15 PM,14.7,8.2,75,29.69,10.0,WNW,17.3,24.2,N/A,,Mostly Cloudy,290,2014-01-17 05:15:00
11:35 PM,14.5,8.2,76,29.70,10.0,WNW,18.4,24.2,N/A,,Mostly Cloudy,300,2014-01-17 05:35:00
11:55 PM,14.5,8.1,75,29.70,10.0,WNW,16.1,26.5,N/A,,Overcast,290,2014-01-17 05:55:00